Theta_e
313 313 312 312 311 309 308 308 307 307 306 306 306 306 306 306 306 306 305 305 305 305 305 304 304 303 303 303 303 303 306 311 314 315 315 316 318 319 321 323 324 325
312 313 312 312 310 309 308 308 307 307 306 306 306 306 306 306 306 306 305 305 305 305 306 306 305 305 303 302 302 303 303 305 310 312 312 313 316 318 319 320 322 323
312 312 312 311 310 309 308 308 307 307 307 307 306 306 306 306 306 306 305 305 305 306 307 307 306 306 305 303 303 304 303 304 306 309 311 311 313 317 318 319 320 321
311 312 312 311 309 309 308 308 307 307 306 307 306 306 306 306 305 305 305 306 306 306 307 307 307 307 306 305 305 306 305 305 306 308 310 310 311 314 317 319 319 320
310 311 311 311 309 308 308 308 307 307 307 306 306 306 306 306 305 306 306 306 306 306 307 307 308 308 307 306 305 306 306 305 305 306 309 310 310 312 314 317 319 319
310 311 310 310 310 309 308 308 307 307 307 306 306 306 306 306 305 306 306 306 306 305 306 307 307 307 307 306 306 306 306 305 304 304 306 308 310 311 313 315 318 319
310 310 310 310 309 309 308 307 307 307 307 307 306 306 306 306 306 306 305 305 306 305 305 306 306 306 306 306 306 306 306 306 306 305 304 305 308 311 312 314 316 319
309 310 310 310 309 308 308 307 307 307 306 306 306 305 306 306 306 306 306 305 306 306 305 305 306 306 305 306 306 305 306 306 306 306 305 305 306 309 311 313 315 317
310 310 310 309 309 308 307 307 307 307 306 306 306 306 306 307 307 307 306 306 306 306 306 306 305 305 305 305 305 305 305 305 305 305 306 306 306 306 308 311 313 315
310 310 310 310 308 308 307 307 307 306 305 306 306 306 307 307 307 307 306 306 306 305 306 305 305 305 305 305 305 305 305 305 305 305 305 306 306 306 307 309 311 312
311 311 310 309 309 308 307 306 306 306 306 307 307 307 307 307 307 306 306 306 306 305 305 305 305 305 305 305 305 305 305 305 305 305 305 306 306 306 307 308 310 311
311 311 310 310 309 308 307 306 306 306 306 307 307 306 306 306 306 306 306 305 305 305 305 305 305 305 305 305 305 305 305 305 305 304 305 305 306 307 307 307 308 310
311 311 310 310 309 308 307 307 306 306 306 306 306 306 306 306 305 305 305 305 305 305 305 305 305 305 305 305 305 305 305 304 304 304 304 304 305 306 307 307 307 308
312 311 310 309 309 308 307 307 306 306 307 306 306 305 305 305 304 304 304 304 304 304 304 304 304 304 304 304 304 304 304 304 304 304 304 304 304 305 306 307 307 307
312 311 311 309 308 307 306 306 306 306 306 305 304 304 304 304 304 304 304 304 304 304 304 304 304 304 304 304 304 304 304 304 304 304 304 304 304 304 304 305 306 307
311 310 309 308 307 306 306 307 306 306 305 304 304 304 304 303 303 303 303 303 303 303 303 303 303 304 303 303 303 303 303 303 303 303 303 303 304 304 304 304 304 305
310 309 309 307 306 307 307 306 305 305 304 304 304 304 303 303 303 302 302 302 302 302 302 302 302 303 303 303 303 303 303 303 303 303 302 302 302 302 303 303 303 304
310 309 308 307 307 307 306 306 305 304 304 303 303 303 302 302 302 301 301 301 301 301 301 301 301 301 301 301 302 302 302 302 302 302 302 302 301 301 301 301 301 302
310 309 308 308 307 307 306 305 304 303 303 303 303 302 302 302 301 301 301 300 300 300 300 300 300 300 300 300 300 301 301 301 301 301 301 301 301 301 300 300 300 300
309 308 308 307 306 306 305 304 303 302 302 302 302 302 302 301 301 300 300 300 299 299 299 299 299 299 299 299 299 299 299 299 300 300 300 300 300 300 300 300 300 300
308 307 307 306 305 305 304 303 303 302 302 302 302 302 301 301 301 300 299 299 299 299 299 299 299 299 298 298 298 298 298 298 298 298 299 299 299 299 299 299 299 299
307 306 306 305 305 304 304 303 303 303 302 302 302 301 301 300 300 299 299 299 299 299 299 299 299 299 298 298 298 298 298 298 298 298 298 298 298 298 298 298 298 298
306 306 305 305 304 304 304 303 303 302 302 302 301 301 300 300 299 299 298 299 299 298 298 298 298 298 298 297 297 297 297 297 297 297 297 297 297 297 297 297 297 298
306 305 305 304 304 304 303 303 302 302 301 301 300 300 299 299 299 298 298 298 298 298 298 297 297 297 297 296 296 296 296 296 296 296 296 296 296 296 296 296 297 297
304 304 303 303 303 303 303 302 302 301 300 300 299 299 299 298 298 298 297 297 297 297 297 296 296 296 296 296 295 295 295 295 295 295 295 296 296 296 296 296 296 297
303 304 304 303 303 302 302 301 301 300 299 299 299 299 298 297 297 297 297 297 296 296 296 295 295 295 295 295 295 294 294 294 294 295 295 295 295 296 296 296 296 296
Wind_Speed
17 17 16 16 15 15 15 13 12 13 13 13 14 14 15 16 17 19 20 21 22 22 23 23 23 24 24 24 24 24 24 25 26 26 26 26 26 27 28 28 28 28
17 17 17 17 16 15 16 15 14 14 15 15 16 17 17 18 19 21 22 23 24 24 23 23 23 24 24 24 24 25 27 27 27 28 28 28 27 27 27 28 29 29
17 18 18 18 16 16 16 16 15 15 16 17 18 19 20 20 22 23 24 24 24 23 22 22 22 21 21 23 23 24 27 28 27 27 27 28 28 27 27 26 28 29
17 18 18 18 17 17 18 17 17 17 18 18 19 21 22 22 24 24 24 24 23 22 22 21 20 19 20 21 21 23 25 26 27 27 28 29 29 29 28 26 26 28
17 17 18 19 18 18 19 18 18 19 19 20 21 21 23 24 25 25 24 24 24 23 22 20 19 20 21 21 21 22 23 25 27 27 28 29 29 29 29 28 26 25
17 18 18 19 19 19 20 19 20 20 21 21 22 23 23 24 24 24 24 25 26 24 21 20 19 19 20 21 21 21 22 23 24 26 27 28 28 28 28 27 27 25
17 18 19 19 20 20 20 20 20 21 21 22 22 22 22 22 23 24 25 26 26 24 22 20 19 19 19 20 21 21 21 22 23 24 26 27 28 28 28 27 26 26
18 18 19 20 21 21 20 20 21 21 21 21 21 21 20 19 21 23 24 25 24 23 22 21 20 20 20 20 21 22 21 22 23 24 25 26 27 28 29 29 28 28
19 19 20 21 21 21 21 20 20 19 19 20 20 19 18 19 21 23 24 24 23 22 21 22 22 22 21 21 20 20 22 23 24 24 25 25 26 28 30 31 32 32
20 20 21 21 21 21 20 18 18 18 18 18 19 19 18 19 21 22 22 23 23 23 22 22 23 22 21 21 21 21 22 23 24 25 25 26 27 28 28 30 32 34
19 20 20 20 20 19 18 16 16 16 16 17 18 18 19 20 20 21 22 22 22 22 22 22 22 22 22 22 22 22 23 24 25 26 26 26 28 29 29 29 29 31
19 19 19 19 18 17 15 15 15 15 16 17 17 18 19 20 20 21 21 22 22 22 23 23 22 23 23 23 23 24 25 25 26 27 27 28 30 30 30 31 30 30
18 18 17 16 15 14 13 13 14 14 14 15 16 18 20 21 21 21 21 22 23 23 24 24 24 25 25 25 26 26 26 26 26 27 28 29 30 31 31 32 32 32
17 16 15 15 14 13 13 13 13 13 13 16 19 21 21 20 20 21 21 21 22 23 23 24 25 26 26 25 25 26 26 26 27 27 28 28 29 30 31 32 34 35
16 15 15 15 15 14 13 12 12 13 16 20 22 21 19 18 18 20 20 21 23 23 24 25 26 28 28 28 27 26 25 26 26 27 28 28 29 30 31 31 33 36
16 16 16 15 14 12 11 12 13 16 20 20 19 18 18 18 18 20 21 23 24 24 25 26 28 29 30 31 30 29 29 30 31 31 31 30 30 31 32 33 34 35
16 15 14 13 11 10 12 13 14 17 19 19 19 18 18 18 20 22 23 23 24 26 26 27 28 29 30 30 31 31 32 34 36 38 38 37 36 35 35 36 36 36
15 14 13 11 11 12 13 13 15 18 21 21 19 18 18 20 23 23 23 23 25 26 27 27 29 29 29 30 30 32 33 35 37 39 41 42 42 41 40 38 37 38
14 13 12 12 12 13 13 14 18 21 22 20 18 17 19 23 26 25 25 26 27 28 28 29 29 28 28 29 30 32 33 36 38 40 42 44 44 45 45 42 39 40
13 12 11 12 12 12 13 16 20 21 20 18 17 19 22 25 27 27 26 26 28 29 30 30 30 29 29 29 30 31 32 34 38 40 43 46 46 46 47 45 43 42
12 11 11 11 11 13 15 18 19 19 18 17 17 21 25 27 28 27 26 26 28 29 30 32 32 32 32 32 32 32 33 34 37 39 42 45 47 47 48 48 46 45
10 10 10 11 12 14 16 17 17 16 16 16 19 23 26 26 26 26 26 28 28 28 30 31 32 32 32 32 32 33 35 36 39 40 42 45 47 47 48 49 49 48
9 9 9 11 12 14 14 15 15 16 17 18 21 23 25 26 26 26 26 27 28 28 29 31 32 33 33 33 33 33 35 37 40 42 45 46 47 48 48 48 48 47
9 9 10 11 12 13 13 14 16 18 19 19 20 22 24 25 27 27 26 26 26 27 29 31 33 33 32 32 32 32 33 36 39 42 45 47 49 49 48 48 48 46
10 10 10 10 11 12 13 15 17 18 17 17 19 22 24 25 26 25 25 26 27 28 29 31 32 32 30 30 30 31 33 37 40 42 45 46 47 48 48 47 47 47
9 8 8 9 10 12 14 15 15 15 16 17 20 24 25 25 24 24 25 27 28 29 29 30 30 31 30 30 31 33 34 36 38 41 44 44 45 46 47 47 47 47
Wind_Direction
256 257 257 254 253 256 262 268 272 277 283 287 289 289 290 292 294 297 300 301 301 299 298 298 298 298 295 289 282 277 267 254 247 248 252 254 250 247 251 255 257 257
256 254 253 252 250 249 256 264 269 274 279 283 288 290 291 294 294 296 299 300 301 300 299 297 296 295 294 290 280 270 267 261 254 251 251 253 251 250 250 252 255 257
256 253 249 249 249 248 255 264 268 272 276 281 286 289 292 295 298 299 299 300 300 299 298 297 294 291 291 291 281 267 261 259 258 256 254 251 249 249 250 252 256 257
257 252 248 246 246 249 257 265 268 271 276 280 284 289 294 298 300 301 300 300 299 295 293 292 289 287 289 287 278 268 260 257 255 255 256 254 250 247 246 249 253 254
260 255 250 247 246 251 258 264 267 271 275 280 285 290 295 298 300 302 303 302 299 294 288 284 281 280 284 284 278 272 266 261 256 255 257 259 256 251 246 247 251 252
260 257 253 250 250 252 258 262 266 271 276 281 287 292 296 300 303 305 305 303 301 296 286 279 278 278 280 282 279 275 273 271 265 259 257 258 259 257 251 248 251 254
259 257 254 251 252 254 256 261 265 271 278 283 290 296 299 301 302 302 303 301 300 297 288 279 277 276 275 275 274 272 272 273 273 269 263 258 256 257 255 251 250 253
254 253 251 250 253 257 258 262 267 274 283 289 295 300 301 298 296 297 298 297 295 292 289 285 280 278 276 274 272 272 272 270 270 272 270 264 257 254 254 252 249 248
245 245 247 248 252 256 259 265 273 281 288 293 298 300 298 293 290 291 292 291 287 284 282 282 280 278 277 274 272 271 272 271 269 269 270 270 265 258 254 252 251 247
237 239 243 247 250 254 260 269 277 284 289 291 294 293 288 283 283 285 286 284 282 279 276 275 276 276 275 275 274 272 272 272 272 270 268 268 268 265 259 254 254 253
233 235 239 244 249 254 262 271 277 283 285 285 286 285 283 281 279 278 279 279 278 277 275 274 274 275 275 275 275 274 273 273 273 273 270 267 267 266 264 259 255 256
230 233 238 242 248 257 265 272 275 279 281 281 281 281 280 279 277 276 277 277 277 276 276 276 275 274 274 275 275 274 273 272 270 271 270 268 267 267 267 265 258 255
231 234 239 242 249 256 260 265 272 276 278 277 276 276 277 278 277 276 276 274 274 274 274 274 274 273 272 271 272 272 272 271 270 270 269 269 270 270 269 267 263 258
227 230 237 242 246 251 256 264 271 272 270 270 274 277 279 280 279 279 278 277 277 276 275 275 274 274 273 271 271 271 270 271 272 272 272 272 273 273 271 269 267 263
215 219 225 234 243 253 263 267 266 267 273 279 283 285 282 279 279 281 282 281 280 279 277 276 275 274 273 272 272 271 270 271 271 271 273 274 274 275 274 272 270 268
214 221 227 238 252 261 262 261 268 279 287 290 289 285 282 282 282 282 281 281 282 281 278 275 274 273 272 271 271 270 270 271 271 270 269 269 270 271 272 272 272 272
215 224 233 248 257 254 255 264 276 285 290 289 284 281 282 285 283 281 281 282 283 284 282 279 276 274 273 271 270 269 270 271 272 271 271 270 269 268 268 269 270 271
211 219 228 237 237 242 255 266 272 279 287 287 282 280 282 283 281 280 283 286 286 286 285 282 279 277 275 272 270 268 268 269 270 271 272 273 272 271 270 269 268 268
207 212 217 224 232 246 259 266 273 285 294 291 284 283 283 280 280 281 283 285 286 287 286 284 282 279 276 273 270 267 266 267 268 269 270 271 271 272 272 270 269 269
205 208 214 228 242 254 260 268 280 290 293 290 286 285 281 279 282 285 285 286 287 287 287 286 285 283 282 281 278 275 273 270 268 268 268 269 269 270 270 268 267 267
204 210 223 238 250 258 264 274 285 290 290 289 285 283 282 283 285 285 287 289 289 289 289 287 287 288 289 288 286 285 284 280 276 272 270 270 269 269 269 268 266 265
208 217 234 248 256 262 268 277 284 286 286 285 282 283 285 287 287 286 288 290 290 289 288 287 287 288 287 286 284 282 282 281 280 278 274 273 271 271 270 270 268 265
223 230 243 253 260 266 271 276 279 280 280 280 282 285 287 288 288 288 289 289 289 288 287 287 287 286 286 284 281 280 280 280 280 279 277 275 273 273 272 271 269 265
230 239 247 253 260 266 270 272 275 278 281 283 286 287 289 290 290 290 290 290 290 289 288 287 287 286 286 285 284 284 285 285 284 281 279 276 274 273 272 271 269 265
233 247 257 260 264 268 271 276 280 285 290 292 288 287 289 293 294 293 292 292 291 290 289 289 289 289 288 288 288 290 291 290 288 286 282 278 276 274 273 271 269 266
244 255 265 265 270 276 280 284 286 291 295 291 289 291 296 298 298 296 294 294 294 294 294 293 292 291 290 292 294 296 298 296 291 287 285 282 279 275 273 271 269 266